TimeEST,TemperatureF,Dew PointF,Humidity,Sea Level PressureIn,VisibilityMPH,Wind Direction,Wind SpeedMPH,Gust SpeedMPH,PrecipitationIn,Events,Conditions,WindDirDegrees,DateUTC
12:58 AM,9.3,-3.8,55,29.87,8.0,North,18.4,-,N/A,,Overcast,350,2014-01-22 05:58:00
1:58 AM,8.8,-4.9,54,29.88,10.0,North,18.4,24.2,N/A,,Overcast,350,2014-01-22 06:58:00
2:58 AM,8.6,-6.7,50,29.85,10.0,North,16.1,20.7,N/A,,Overcast,10,2014-01-22 07:58:00
3:58 AM,7.9,-6.3,52,29.85,10.0,North,16.1,19.6,N/A,,Overcast,10,2014-01-22 08:58:00
4:58 AM,6.8,-6.3,55,29.82,10.0,North,13.8,-,N/A,,Overcast,360,2014-01-22 09:58:00
5:58 AM,6.1,-6.7,56,29.82,10.0,North,16.1,-,N/A,,Overcast,350,2014-01-22 10:58:00
6:58 AM,5.9,-7.2,55,29.82,10.0,North,19.6,26.5,N/A,,Overcast,350,2014-01-22 11:58:00
7:58 AM,6.1,-7.8,53,29.80,10.0,North,18.4,20.7,N/A,,Mostly Cloudy,360,2014-01-22 12:58:00
8:58 AM,6.3,-8.0,52,29.79,10.0,North,16.1,25.3,N/A,,Mostly Cloudy,360,2014-01-22 13:58:00
9:58 AM,7.3,-8.3,49,29.76,10.0,North,15.0,24.2,N/A,,Mostly Cloudy,350,2014-01-22 14:58:00
10:58 AM,9.3,-7.4,47,29.71,10.0,North,19.6,24.2,N/A,,Mostly Cloudy,350,2014-01-22 15:58:00
11:58 AM,12.6,-6.2,43,29.65,10.0,North,17.3,23.0,N/A,,Mostly Cloudy,350,2014-01-22 16:58:00
12:58 PM,16.2,-5.8,38,29.64,10.0,North,17.3,21.9,N/A,,Mostly Cloudy,360,2014-01-22 17:58:00
1:58 PM,18.1,-4.0,38,29.64,10.0,NNW,18.4,-,N/A,,Mostly Cloudy,340,2014-01-22 18:58:00
2:58 PM,18.7,-5.1,35,29.67,10.0,NNW,15.0,-,N/A,,Mostly Cloudy,330,2014-01-22 19:58:00
3:58 PM,19.0,-4.4,36,29.69,10.0,West,12.7,-,N/A,,Mostly Cloudy,280,2014-01-22 20:58:00
4:58 PM,15.4,-6.5,37,29.72,10.0,West,10.4,-,N/A,,Scattered Clouds,280,2014-01-22 21:58:00
5:58 PM,12.7,-7.4,40,29.74,10.0,WNW,9.2,-,N/A,,Clear,290,2014-01-22 22:58:00
6:58 PM,10.6,-7.6,44,29.76,10.0,WNW,10.4,-,N/A,,Clear,300,2014-01-22 23:58:00
7:58 PM,9.1,-8.5,45,29.79,10.0,WNW,10.4,-,N/A,,Partly Cloudy,290,2014-01-23 00:58:00
8:58 PM,7.5,-8.5,48,29.81,10.0,WNW,12.7,-,N/A,,Clear,300,2014-01-23 01:58:00
9:58 PM,6.3,-8.3,51,29.84,10.0,WNW,8.1,-,N/A,,Clear,300,2014-01-23 02:58:00
10:58 PM,5.0,-8.5,54,29.87,10.0,WNW,5.8,-,N/A,,Clear,300,2014-01-23 03:58:00
11:58 PM,4.3,-9.8,52,29.88,10.0,WNW,10.4,-,N/A,,Partly Cloudy,300,2014-01-23 04:58:00